Погода Томпо

Погода Томпо : погода сейчас, прогноз погоды и архив. Всё, что Вы хотите узнать о погоде Томпо!

Хотите узнать прогноз погоды Томпо? Тогда Вам сюда: Погода Томпо

Поиск расширенной информации на нашем сайте:

Другие новости

Новости СМИ2

Главная страница сайта

Новости сайта

02.10.2013

Напоминаем, что на нашем новом сайте вы можете получить высокодетализированные прогнозы погоды по пунктам России, СНГ и мира (включающие важные для авиации метеовеличины, такие как направление и скорость ветра, видимость, явления погоды, количество и форма облачности, нижняя и верхняя граница облачности), а также ознакомиться с разнообразными материалами по авиационной метеорологии и подборкой полезных ссылок на эту тему.

Сайт Метеоцентр.Азия посвящён разработке технологий оптимизации авиаметеорологического обслуживания, включая проектирование и перспективное создание нескольких автоматизированных авиаметеорологических систем:
- система выпуска высокодетальных прогностических карт явлений погоды для нижнего воздушного пространства по России и ближнему зарубежью;
- система верификации прогнозов TAF (выпускаемых синоптиками официальных АМСГ РФ и ближнего зарубежья) и AUTOTAF (выпускаемых сайтом Метеоцентр.Азия) - выявление ошибок, онлайн-сопоставление с фактической погодой METAR, автоматическое внесение коррективов в прогнозы при резком отклонении фактической погоды от прогноза, подсчёт оправдываемости прогнозов по элементам и в целом;
- система обработки, анализа и отображения авиаметеорологической информации для применения провайдерами метеорологической информации.

Рекомендуем: Отрасли промышленности http://promyshlennosts.ru

Погода Томпо - сегодня

Время (UTC), дата Ветер
(°,м/с) 
Видим.   Явления Облачность Т
(°С)
Тd
(°С)
f(%) Тe
(°С)
Pmin
(гПа)
dP
(гПа)
Po
(мм)
O2
(г/м3)
Тmin Tmax R s Состояние
почвы
00 25.02.17 360 (С) //  20000 м    ясно 
-39.5 -42.3 75 -40  1019.2  721  342  -39.5         
03 25.02.17 300 (СЗ) //  20000 м    1/0 верхняя 
[Ci fib]
-31.9 -35.7 69 -32  1016.5  -0.6  720  331           
06 25.02.17 360 (С) //  20000 м    ясно 
-25.4 -31.8 55 -25  1013.2  -1.5  719  321           
09 25.02.17 170 (Ю) //  0900 м    ясно <0100 м 
-32.3 -36.7 65 -32  1015.3  0.3  719  331    -23.8       
12 25.02.17 000 (С) //  20000 м    ясно 
-37 -40.4 70 -37  1017.7  1.2  720  338           
15 25.02.17 000 (С) //  20000 м    ясно 
-40 -42.8 75 -40  1018.7  0.3  721  342           
18 25.02.17 360 (С) //  20000 м    ясно 
-41.9 -44.4 77 -42  1020  0.6  721  345           
21 25.02.17 360 (С) //  20000 м    ясно 
-43.7 -46.3 75 -44  1020.7  0.5  721  348  -43.7      27  равномерный
сухой снег
100% 
00 26.02.17 360 (С) //  20000 м    ясно 
-44.8 -47.8 72 -45  1021.7  0.4  722  350  -44.8         
03 26.02.17 360 (С) //  20000 м    ясно 
-39 -41.8 75 -39  1020.1  722  341           
06 26.02.17 290 (З) //  20000 м    ясно 
-31.1 -35.5 65 -31  1017.2  -0.9  721  330           
09 26.02.17 270 (З) //  20000 м    4/0 средняя 
[Ac trans]
-32 -36.5 64 -32  1017.8  0.3  721  331    -31.1       
12 26.02.17 360 (С) //  20000 м    3/0 средняя 
[Ac trans]
-36.2 -39.7 70 -36  1019.7  722  337           
15 26.02.17 360 (С) //  4000 м  слаб. снег  9/0 средняя 
[Ac As]
-35.4 -38.4 74 -35  1020.9  1.3  723  337           
18 26.02.17 360 (С) //  4000 м  слаб. снег  9/0 средняя 
[Ac As]
-35.5 -38.4 75 -36  1021.9  0.7  723  337           
21 26.02.17 300 (СЗ) //  4000 м  слаб. снег  9/0 средняя 
[Ac As]
-35.5 -38.4 75 -36  1023.2  1.2  724  337  -36.2    0.3  26  равномерный
сухой снег
100% 
00 27.02.17 300 (СЗ) //  10 км  слаб. снег  9/0 средняя 
[Ac As]
-36.5 -39.4 74 -37  1025  1.4  725  339  -37.3         
03 27.02.17 360 (С) //  20000 м  {снег}  3/0 верхняя 
[Ci fib]
-31.7 -35.5 69 -32  1024.9  1.2  726  333           
06 27.02.17 360 (С) //  20000 м  {снег}  ясно 
-26.7 -31.7 63 -27  1024.5  0.6  727  326           
09 27.02.17 350 (С) //  20000 м    ясно 
-29.7 -33.5 70 -30  1026.5  1.3  728  331    -25.1  0.0     
12 27.02.17 360 (С) //  20000 м    ясно 
-34.5 -37.4 75 -35  1029.9  2.1  729  338           
15 27.02.17 360 (С) //  20000 м    ясно 
-38.4 -41.4 73 -38  1032.2  1.4  730  344           
21 27.02.17 360 (С) //  20000 м    ясно 
-38.5 -41.4 74 -39  1034.8  0.9  732  345  -40      27  равномерный
сухой снег
100% 
00 28.02.17 360 (С) //  20000 м    5/0 средняя, верхняя 
[Ac As|Cs]
-37.4 -40.1 76 -37  1034.2  0.5  732  344        508  сухой снег
10-40% 
03 28.02.17 360 (С) //  20000 м    8/0 средняя, верхняя 
[Ac As|Cs]
-30.5 -33.6 74 -31  1033.9  0.4  733  334           
Время (UTC), дата Ветер
(°,м/с) 
Видим.   Явления Облачность Т
(°С)
Тd
(°С)
f(%) Тe
(°С)
Pmin
(гПа)
dP
(гПа)
Po
(мм)
O2
(г/м3)
Тmin Tmax R s Состояние
почвы

Для получения пояснительной информации подведите курсор к названию столбца.

ПОГОДА Томпо - архив

Всё, что Вы хотите узнать о погоде Томпо - удобно и подробно!

Выберите нужную дату (начиная с 1 января 2015* года) и нажмите кнопку "Найти".
Будут отображены архивные сводки погоды по пункту Томпо, начиная с указанной даты.


Отображать данные в формате CSV (для использования в таблицах Excel)


Внимание! Наш архив погоды предназначен исключительно для личного некоммерческого использования в познавательных целях. Если Вам необходимы официальные справки о состоянии погоды (для производственных, юридических, коммерческих и т.п. целей), обращайтесь в органы Росгидромета.

*Примечание: данная дата относится к архиву по метеостанциям СССР (Россия, СНГ, Балтия).
Архив по метеостанциям Зарубежной Европы и Азии (кроме Китая) хранится 10 дней, по другим регионам земного шара (Китай, Африка, Америка, Австралия, Океания) - 1 день.

Томпо - район местоположения метеостанции


Название, широта, долгота, высота метеостанции:
Томпо 63.9°ш. 135.9°д. 402 м над ур. моря [Российская Федерация]

Дополнительная информация

В oтличие oт бoльшинства пoгoдных сайтoв мы публикуем пoдрoбную метеoинфoрмацию в детальнoм прoфессиoнальнoм фoрмате.

Характеристики температуры и влажнoсти вoздуха измеряются на высoте 2 м в тени вдали oт зданий и деревьев.
Скoрoсть ветра измеряется на высoте 10 м (на урoвне рoста челoвека скoрoсть ветра ниже в 1.5-2 раза). Если метеoстанция нахoдится в гoрoде или в лесу, тo скoрoсть ветра занижена на 2-4 м/с пo сравнению с oткрытым местoм. Скoрoсть ветра над акватoриями крупных рек и oзёр, а также на вершинах хoлмoв на 2-5 м/с выше, чем в oбычных услoвиях.
Атмoсфернoе давление в разных тoчках местнoсти мoжет значительнo oтличаться oт давления на метеoстанции, в зависимoсти oт услoвий рельефа (при пoдъёме на 10 м давление пoнижается примернo на 1 мм рт.ст.).